sat.trackr.live / text

‹ back to catalog

STARLINK-30604

NORAD 58075 · 2023-160A

PAYLOAD ACTIVE UNKNOWN

§ Identity

Operator
Country
US
Launch date
2023-10-18
Launch site
AFETR
Launch vehicle
Mass (kg)
RCS (m²)

Purposes: comms

External: N2YO · Heavens-Above · Gunter

§ Orbital elements

Epoch: 2026-09-20T17:02:58.834752Z

Period
94.27 min
Inclination
43.0016°
Eccentricity
0.0001398
Mean motion
15.27576542 rev/d
Perigee alt
482.1 km
Apogee alt
484.0 km
Semi-major
6,861.2 km
B*
1.1841e-5
RAAN
56.3537°
Arg perigee
266.3652°
Mean anomaly
93.7040°
Rev number
16,277

§ Raw data

STARLINK-306041 58075U 23160A   26263.71040318  .00000064  00000+0  11841-4 0  99982 58075  43.0016  56.3537 0001398 266.3652  93.7040 15.27576542162771

JSON: /api/v1/satellites/58075 · /tle

For live sub-satellite position, see the globe view (requires WebGL).

§ Visibility from observer

Set your observer location to see the next 7 days of passes ≥ 10°. The values pass through the URL so the page stays shareable.

No JS? Fill the form by hand. The geolocation button needs JavaScript.